Weather History for Stevens Point, WI

Change the Weather History Date:

Sunday, May 19, 2013

  Actual Average Record
Temperature  
Mean Temperature 67 °F -  
Max Temperature 82 °F 70 °F 88 °F (1972)
Min Temperature 52 °F 46 °F 28 °F (2008)
Cooling Degree Days 2    
Growing Degree Days 17 (Base 50)    
Moisture  
Dew Point 58 °F    
Average Humidity 70    
Maximum Humidity 98    
Minimum Humidity 48    
Precipitation  
Precipitation 0.00 in - - ()
Sea Level Pressure  
Sea Level Pressure 29.84 in    
Wind  
Wind Speed 7 mph (SE)    
Max Wind Speed 16 mph    
Max Gust Speed 24 mph    
Visibility 8 miles    
Events      
Averages and records for this station are not official NWS values.
T = Trace of Precipitation, MM = Missing Value Source: NWS Daily Summary

Daily Weather History Graph

Daily Weather History Graph

Search for Another Location

Airport:

Trip Planner

Search our weather history database for the weather conditions in past years. The results will help you decide how hot, cold, wet, or windy it might be!

Date:

Astronomy

May. 19, 2013 Rise Set
Actual Time 5:26 AM CDT 8:23 PM CDT
Civil Twilight 4:51 AM CDT 8:58 PM CDT
Nautical Twilight 4:07 AM CDT 9:42 PM CDT
Astronomical Twilight 3:15 AM CDT 10:34 PM CDT
Moon 2:14 PM CDT (5/19) 2:04 AM CDT (5/19)
Length of Visible Light 16h 06m
Length of Day
14h 57m
Waxing Gibbous, 65% of the Moon is Illuminated
May 19
Waxing Gibbous
May 24
Full
May 31
Last Quarter
Jun 8
New
Jun 16
First Quarter

Hourly Weather History & Observations

Time (CDT) Temp. Heat Index Dew Point Humidity Pressure Visibility Wind Dir Wind Speed Gust Speed Precip Events Conditions
12:15 AM 62.2 °F - 58.1 °F 86% 29.93 in 7.0 mi SE 5.8 mph - N/A   Clear
12:35 AM 62.1 °F - 57.6 °F 85% 29.93 in 7.0 mi SE 4.6 mph - N/A   Clear
12:55 AM 61.7 °F - 57.4 °F 86% 29.93 in 7.0 mi SSE 4.6 mph - N/A   Clear
1:15 AM 61.3 °F - 57.2 °F 86% 29.93 in 7.0 mi SSE 5.8 mph - N/A   Clear
1:35 AM 60.8 °F - 56.8 °F 87% 29.93 in 7.0 mi SSE 5.8 mph - N/A   Clear
1:55 AM 60.3 °F - 56.3 °F 87% 29.91 in 7.0 mi SE 5.8 mph - N/A   Clear
2:15 AM 60.3 °F - 56.3 °F 87% 29.90 in 7.0 mi SE 6.9 mph - N/A   Clear
2:35 AM 60.1 °F - 56.3 °F 87% 29.91 in 7.0 mi SE 4.6 mph - N/A   Clear
2:55 AM 59.9 °F - 56.3 °F 88% 29.92 in 7.0 mi SE 3.5 mph - N/A   Clear
3:15 AM 59.5 °F - 55.9 °F 88% 29.93 in 7.0 mi SE 4.6 mph - N/A   Clear
3:35 AM 59.4 °F - 55.9 °F 88% 29.93 in 7.0 mi SSE 3.5 mph - N/A   Clear
3:55 AM 59.0 °F - 55.8 °F 89% 29.93 in 7.0 mi Calm Calm - N/A   Clear
4:15 AM 57.2 °F - 54.7 °F 91% 29.94 in 5.0 mi Calm Calm - N/A   Clear
4:35 AM 55.0 °F - 53.6 °F 95% 29.95 in 4.0 mi Calm Calm - N/A   Clear
4:55 AM 55.6 °F - 54.1 °F 95% 29.95 in 4.0 mi Calm Calm - N/A   Mostly Cloudy
5:15 AM 52.9 °F - 52.0 °F 97% 29.94 in 2.5 mi Calm Calm - N/A   Scattered Clouds
5:35 AM 52.7 °F - 52.2 °F 98% 29.93 in 1.5 mi Calm Calm - N/A   Mist
5:55 AM 54.0 °F - 53.1 °F 97% 29.93 in 2.0 mi Calm Calm - N/A   Mostly Cloudy
6:15 AM 55.6 °F - 54.7 °F 97% 29.93 in 1.5 mi Calm Calm - N/A   Mostly Cloudy
6:35 AM 58.5 °F - 56.7 °F 94% 29.93 in 3.0 mi Calm Calm - N/A   Scattered Clouds
7:15 AM 62.4 °F - 58.5 °F 87% 29.94 in 5.0 mi SE 4.6 mph - N/A   Haze
7:35 AM 63.5 °F - 58.6 °F 84% 29.93 in 5.0 mi SE 6.9 mph - N/A   Haze
7:55 AM 64.0 °F - 58.8 °F 83% 29.95 in 7.0 mi SSE 5.8 mph - N/A   Overcast
8:15 AM 64.6 °F - 59.0 °F 82% 29.94 in 7.0 mi SSE 6.9 mph - N/A   Overcast
8:35 AM 65.3 °F - 59.2 °F 81% 29.94 in 7.0 mi SSE 5.8 mph - N/A   Overcast
8:55 AM 67.5 °F - 59.7 °F 76% 29.91 in 7.0 mi SE 9.2 mph - N/A   Mostly Cloudy
9:15 AM 68.0 °F - 59.9 °F 75% 29.92 in 10.0 mi SSE 6.9 mph - N/A   Scattered Clouds
9:55 AM 69.1 °F - 60.3 °F 73% 29.90 in 10.0 mi SE 9.2 mph - N/A   Clear
10:15 AM 69.3 °F - 60.6 °F 74% 29.90 in 10.0 mi SSE 9.2 mph - N/A   Scattered Clouds
10:35 AM 70.3 °F - 60.8 °F 72% 29.88 in 10.0 mi SE 9.2 mph 16.1 mph N/A   Clear
10:55 AM 73.9 °F - 60.8 °F 63% 29.86 in 10.0 mi SE 15.0 mph 23.0 mph N/A   Clear
11:15 AM 75.0 °F - 60.6 °F 61% 29.85 in 10.0 mi SE 15.0 mph - N/A   Clear
11:35 AM 74.3 °F - 59.9 °F 61% 29.83 in 10.0 mi SE 12.7 mph 24.2 mph N/A   Clear
11:55 AM 76.6 °F - 60.3 °F 57% 29.83 in 10.0 mi SE 16.1 mph 21.9 mph N/A   Clear
12:15 PM 75.2 °F - 60.1 °F 59% 29.82 in 10.0 mi SE 15.0 mph 21.9 mph N/A   Clear
12:35 PM 75.2 °F - 60.3 °F 60% 29.81 in 10.0 mi SE 12.7 mph 19.6 mph N/A   Clear
12:55 PM 76.1 °F - 60.6 °F 59% 29.79 in 10.0 mi ESE 11.5 mph 19.6 mph N/A   Clear
1:15 PM 78.3 °F - 60.4 °F 54% 29.80 in 10.0 mi SSE 11.5 mph 17.3 mph N/A   Clear
1:35 PM 77.2 °F - 60.1 °F 55% 29.81 in 10.0 mi SE 10.4 mph - N/A   Clear
2:15 PM 77.5 °F - 59.9 °F 54% 29.82 in 10.0 mi SSE 11.5 mph - N/A   Scattered Clouds
2:35 PM 78.3 °F - 61.0 °F 55% 29.82 in 10.0 mi SSE 13.8 mph 21.9 mph N/A   Mostly Cloudy
3:15 PM 79.0 °F - 61.3 °F 55% 29.81 in 10.0 mi SSE 11.5 mph 20.7 mph N/A   Scattered Clouds
3:35 PM 80.4 °F 81.3 °F 61.0 °F 51% 29.80 in 10.0 mi SSE 16.1 mph 21.9 mph N/A   Scattered Clouds
3:55 PM 80.6 °F 81.5 °F 61.0 °F 51% 29.80 in 10.0 mi SSE 11.5 mph 23.0 mph N/A   Scattered Clouds
4:35 PM 80.8 °F 81.5 °F 60.4 °F 50% 29.78 in 10.0 mi South 15.0 mph 21.9 mph N/A   Mostly Cloudy
4:55 PM 81.3 °F 81.9 °F 60.4 °F 49% 29.78 in 10.0 mi SSE 12.7 mph 19.6 mph N/A   Mostly Cloudy
5:15 PM 82.0 °F 82.5 °F 60.6 °F 48% 29.75 in 10.0 mi SE 13.8 mph 23.0 mph N/A   Scattered Clouds
5:35 PM 81.5 °F 82.1 °F 60.4 °F 49% 29.75 in 10.0 mi SSE 12.7 mph 23.0 mph N/A   Scattered Clouds
5:55 PM 80.8 °F 81.5 °F 60.8 °F 50% 29.73 in 10.0 mi ESE 9.2 mph 16.1 mph N/A   Clear
6:35 PM 79.9 °F - 61.2 °F 53% 29.73 in 10.0 mi ESE 8.1 mph - N/A   Clear
6:38 PM 80.6 °F 81.5 °F 60.8 °F 51% 29.73 in 10.0 mi ESE 11.5 mph - N/A   Clear
6:55 PM 79.7 °F - 61.2 °F 53% 29.72 in 10.0 mi ESE 11.5 mph - N/A   Clear
7:15 PM 78.8 °F - 60.6 °F 54% 29.72 in 10.0 mi ESE 11.5 mph - N/A   Clear
7:35 PM 76.5 °F - 61.3 °F 59% 29.73 in 10.0 mi ESE 12.7 mph 21.9 mph N/A   Clear
7:55 PM 75.2 °F - 58.1 °F 55% 29.75 in 10.0 mi SSE 13.8 mph 18.4 mph N/A   Clear
8:15 PM 73.4 °F - 52.9 °F 49% 29.76 in 10.0 mi SE 8.1 mph - N/A   Clear
8:35 PM 72.0 °F - 53.1 °F 51% 29.76 in 10.0 mi SE 8.1 mph - N/A   Clear
8:55 PM 70.7 °F - 53.2 °F 54% 29.75 in 10.0 mi ESE 5.8 mph - N/A   Scattered Clouds
9:15 PM 68.9 °F - 53.8 °F 58% 29.74 in 10.0 mi ESE 9.2 mph - N/A   Scattered Clouds
9:35 PM 68.9 °F - 53.6 °F 58% 29.73 in 10.0 mi ESE 9.2 mph - N/A   Clear
9:55 PM 69.1 °F - 54.0 °F 58% 29.71 in 10.0 mi ESE 10.4 mph - N/A   Mostly Cloudy
10:15 PM 68.9 °F - 55.4 °F 62% 29.71 in 10.0 mi East 12.7 mph - N/A   Scattered Clouds
10:35 PM 68.4 °F - 58.8 °F 71% 29.70 in 10.0 mi ESE 10.4 mph - N/A   Scattered Clouds
11:15 PM 69.8 °F - 60.3 °F 72% 29.71 in 10.0 mi ESE 10.4 mph 18.4 mph N/A   Mostly Cloudy
11:35 PM 69.3 °F - 60.3 °F 73% 29.70 in 10.0 mi ESE 8.1 mph - N/A   Scattered Clouds
11:55 PM 68.9 °F - 60.1 °F 73% 29.69 in 10.0 mi ESE 9.2 mph - N/A   Clear